Year,Month,Day,Hour,Minute,Value (Times are PST for temperature in C)
2014,08,28,00,00,16.70
2014,08,28,00,01,16.70
2014,08,28,00,02,16.70
2014,08,28,00,03,16.70
2014,08,28,00,04,16.60
2014,08,28,00,05,16.60
2014,08,28,00,06,16.60
2014,08,28,00,07,16.60
2014,08,28,00,08,16.60
2014,08,28,00,09,16.60
2014,08,28,00,10,16.60
2014,08,28,00,11,16.60
2014,08,28,00,12,16.60
2014,08,28,00,13,16.60
2014,08,28,00,14,16.60
2014,08,28,00,15,16.50
2014,08,28,00,16,16.50
2014,08,28,00,17,16.50
2014,08,28,00,18,16.50
2014,08,28,00,19,16.50
2014,08,28,00,20,16.40
2014,08,28,00,21,16.40
2014,08,28,00,22,16.40
2014,08,28,00,23,16.40
2014,08,28,00,24,16.40
2014,08,28,00,25,16.30
2014,08,28,00,26,16.30
2014,08,28,00,27,16.30
2014,08,28,00,28,16.30
2014,08,28,00,29,16.30
2014,08,28,00,30,16.30
2014,08,28,00,31,16.30
2014,08,28,00,32,16.30
2014,08,28,00,33,16.30
2014,08,28,00,34,16.30
2014,08,28,00,35,16.30
2014,08,28,00,36,16.30
2014,08,28,00,37,16.30
2014,08,28,00,38,16.30
2014,08,28,00,39,16.30
2014,08,28,00,40,16.30
2014,08,28,00,41,16.30
2014,08,28,00,42,16.30
2014,08,28,00,43,16.30
2014,08,28,00,44,16.30
2014,08,28,00,45,16.30
2014,08,28,00,46,16.30
2014,08,28,00,47,16.30
2014,08,28,00,48,16.30
2014,08,28,00,49,16.30
2014,08,28,00,50,16.30
2014,08,28,00,51,16.30
2014,08,28,00,52,16.30
2014,08,28,00,53,16.30
2014,08,28,00,54,16.30
2014,08,28,00,55,16.40
2014,08,28,00,56,16.40
2014,08,28,00,57,16.40
2014,08,28,00,58,16.40
2014,08,28,00,59,16.40
2014,08,28,01,00,16.40
2014,08,28,01,01,16.40
2014,08,28,01,02,16.40
2014,08,28,01,03,16.40
2014,08,28,01,04,16.40
2014,08,28,01,05,16.40
2014,08,28,01,06,16.40
2014,08,28,01,07,16.40
2014,08,28,01,08,16.40
2014,08,28,01,09,16.40
2014,08,28,01,10,16.40
2014,08,28,01,11,16.40
2014,08,28,01,12,16.40
2014,08,28,01,13,16.50
2014,08,28,01,14,16.50
2014,08,28,01,15,16.50
2014,08,28,01,16,16.50
2014,08,28,01,17,16.50
2014,08,28,01,18,16.50
2014,08,28,01,19,16.50
2014,08,28,01,20,16.50
2014,08,28,01,21,16.50
2014,08,28,01,22,16.50
2014,08,28,01,23,16.50
2014,08,28,01,24,16.50
2014,08,28,01,25,16.50
2014,08,28,01,26,16.50
2014,08,28,01,27,16.50
2014,08,28,01,28,16.50
2014,08,28,01,29,16.50
2014,08,28,01,30,16.40
2014,08,28,01,31,16.40
2014,08,28,01,32,16.50
2014,08,28,01,33,16.50
2014,08,28,01,34,16.50
2014,08,28,01,35,16.50
2014,08,28,01,36,16.50
2014,08,28,01,37,16.50
2014,08,28,01,38,16.50
2014,08,28,01,39,16.60
2014,08,28,01,40,16.60
2014,08,28,01,41,16.60
2014,08,28,01,42,16.60
2014,08,28,01,43,16.60
2014,08,28,01,44,16.70
2014,08,28,01,45,16.70
2014,08,28,01,46,16.70
2014,08,28,01,47,16.70
2014,08,28,01,48,16.70
2014,08,28,01,49,16.70
2014,08,28,01,50,16.70
2014,08,28,01,51,16.70
2014,08,28,01,52,16.70
2014,08,28,01,53,16.70
2014,08,28,01,54,16.70
2014,08,28,01,55,16.70
2014,08,28,01,56,16.70
2014,08,28,01,57,16.70
2014,08,28,01,58,16.70
2014,08,28,01,59,16.70
2014,08,28,02,00,16.70
2014,08,28,02,01,16.70
2014,08,28,02,02,16.70
2014,08,28,02,03,16.70
2014,08,28,02,04,16.70
2014,08,28,02,05,16.70
2014,08,28,02,06,16.70
2014,08,28,02,07,16.70
2014,08,28,02,08,16.70
2014,08,28,02,09,16.70
2014,08,28,02,10,16.70
2014,08,28,02,11,16.70
2014,08,28,02,12,16.80
2014,08,28,02,13,16.80
2014,08,28,02,14,16.80
2014,08,28,02,15,16.80
2014,08,28,02,16,16.80
2014,08,28,02,17,16.80
2014,08,28,02,18,16.80
2014,08,28,02,19,16.80
2014,08,28,02,20,16.80
2014,08,28,02,21,16.80
2014,08,28,02,22,16.80
2014,08,28,02,23,16.80
2014,08,28,02,24,16.80
2014,08,28,02,25,16.80
2014,08,28,02,26,16.80
2014,08,28,02,27,16.80
2014,08,28,02,28,16.80
2014,08,28,02,29,16.80
2014,08,28,02,30,16.80
2014,08,28,02,31,16.80
2014,08,28,02,32,16.80
2014,08,28,02,33,16.80
2014,08,28,02,34,16.90
2014,08,28,02,35,16.90
2014,08,28,02,36,16.90
2014,08,28,02,37,16.90
2014,08,28,02,38,16.90
2014,08,28,02,39,16.90
2014,08,28,02,40,16.90
2014,08,28,02,41,16.90
2014,08,28,02,42,16.90
2014,08,28,02,43,16.90
2014,08,28,02,44,16.90
2014,08,28,02,45,16.90
2014,08,28,02,46,17.00
2014,08,28,02,47,17.00
2014,08,28,02,48,17.00
2014,08,28,02,49,17.00
2014,08,28,02,50,17.00
2014,08,28,02,51,17.00
2014,08,28,02,52,17.00
2014,08,28,02,53,17.00
2014,08,28,02,54,17.00
2014,08,28,02,55,17.00
2014,08,28,02,56,17.00
2014,08,28,02,57,17.10
2014,08,28,02,58,17.10
2014,08,28,02,59,17.00
2014,08,28,03,00,17.10
2014,08,28,03,01,17.10
2014,08,28,03,02,17.10
2014,08,28,03,03,17.10
2014,08,28,03,04,17.10
2014,08,28,03,05,17.10
2014,08,28,03,06,17.10
2014,08,28,03,07,17.10
2014,08,28,03,08,17.10
2014,08,28,03,09,17.10
2014,08,28,03,10,17.10
2014,08,28,03,11,17.10
2014,08,28,03,12,17.10
2014,08,28,03,13,17.10
2014,08,28,03,14,17.10
2014,08,28,03,15,17.10
2014,08,28,03,16,17.10
2014,08,28,03,17,17.10
2014,08,28,03,18,17.10
2014,08,28,03,19,17.10
2014,08,28,03,20,17.20
2014,08,28,03,21,17.20
2014,08,28,03,22,17.20
2014,08,28,03,23,17.20
2014,08,28,03,24,17.20
2014,08,28,03,25,17.20
2014,08,28,03,26,17.20
2014,08,28,03,27,17.20
2014,08,28,03,28,17.20
2014,08,28,03,29,17.20
2014,08,28,03,30,17.20
2014,08,28,03,31,17.20
2014,08,28,03,32,17.20
2014,08,28,03,33,17.20
2014,08,28,03,34,17.20
2014,08,28,03,35,17.20
2014,08,28,03,36,17.20
2014,08,28,03,37,17.20
2014,08,28,03,38,17.20
2014,08,28,03,39,17.20
2014,08,28,03,40,17.20
2014,08,28,03,41,17.20
2014,08,28,03,42,17.20
2014,08,28,03,43,17.20
2014,08,28,03,44,17.20
2014,08,28,03,45,17.20
2014,08,28,03,46,17.20
2014,08,28,03,47,17.20
2014,08,28,03,48,17.20
2014,08,28,03,49,17.20
2014,08,28,03,50,17.20
2014,08,28,03,51,17.20
2014,08,28,03,52,17.20
2014,08,28,03,53,17.20
2014,08,28,03,54,17.20
2014,08,28,03,55,17.20
2014,08,28,03,56,17.20
2014,08,28,03,57,17.20
2014,08,28,03,58,17.20
2014,08,28,03,59,17.20
2014,08,28,04,00,17.20
2014,08,28,04,01,17.20
2014,08,28,04,02,17.20
2014,08,28,04,03,17.20
2014,08,28,04,04,17.20
2014,08,28,04,05,17.20
2014,08,28,04,06,17.20
2014,08,28,04,07,17.20
2014,08,28,04,08,17.20
2014,08,28,04,09,17.20
2014,08,28,04,10,17.20
2014,08,28,04,11,17.20
2014,08,28,04,12,17.20
2014,08,28,04,13,17.20
2014,08,28,04,14,17.20
2014,08,28,04,15,17.20
2014,08,28,04,16,17.20
2014,08,28,04,17,17.20
2014,08,28,04,18,17.20
2014,08,28,04,19,17.20
2014,08,28,04,20,17.20
2014,08,28,04,21,17.20
2014,08,28,04,22,17.20
2014,08,28,04,23,17.20
2014,08,28,04,24,17.20
2014,08,28,04,25,17.20
2014,08,28,04,26,17.20
2014,08,28,04,27,17.20
2014,08,28,04,28,17.20
2014,08,28,04,29,17.20
2014,08,28,04,30,17.20
2014,08,28,04,31,17.20
2014,08,28,04,32,17.20
2014,08,28,04,33,17.20
2014,08,28,04,34,17.30
2014,08,28,04,35,17.30
2014,08,28,04,36,17.30
2014,08,28,04,37,17.30
2014,08,28,04,38,17.30
2014,08,28,04,39,17.30
2014,08,28,04,40,17.30
2014,08,28,04,41,17.20
2014,08,28,04,42,17.20
2014,08,28,04,43,17.20
2014,08,28,04,44,17.20
2014,08,28,04,45,17.20
2014,08,28,04,46,17.30
2014,08,28,04,47,17.30
2014,08,28,04,48,17.30
2014,08,28,04,49,17.30
2014,08,28,04,50,17.30
2014,08,28,04,51,17.30
2014,08,28,04,52,17.30
2014,08,28,04,53,17.30
2014,08,28,04,54,17.30
2014,08,28,04,55,17.30
2014,08,28,04,56,17.30
2014,08,28,04,57,17.30
2014,08,28,04,58,17.30
2014,08,28,04,59,17.30
2014,08,28,05,00,17.30
2014,08,28,05,01,17.30
2014,08,28,05,02,17.30
2014,08,28,05,03,17.30
2014,08,28,05,04,17.30
2014,08,28,05,05,17.30
2014,08,28,05,06,17.30
2014,08,28,05,07,17.30
2014,08,28,05,08,17.30
2014,08,28,05,09,17.30
2014,08,28,05,10,17.30
2014,08,28,05,11,17.30
2014,08,28,05,12,17.30
2014,08,28,05,13,17.30
2014,08,28,05,14,17.30
2014,08,28,05,15,17.30
2014,08,28,05,16,17.30
2014,08,28,05,17,17.30
2014,08,28,05,18,17.30
2014,08,28,05,19,17.30
2014,08,28,05,20,17.30
2014,08,28,05,21,17.30
2014,08,28,05,22,17.30
2014,08,28,05,23,17.30
2014,08,28,05,24,17.30
2014,08,28,05,25,17.30
2014,08,28,05,26,17.30
2014,08,28,05,27,17.30
2014,08,28,05,28,17.20
2014,08,28,05,29,17.20
2014,08,28,05,30,17.20
2014,08,28,05,31,17.20
2014,08,28,05,32,17.20
2014,08,28,05,33,17.20
2014,08,28,05,34,17.20
2014,08,28,05,35,17.20
2014,08,28,05,36,17.20
2014,08,28,05,37,17.20
2014,08,28,05,38,17.20
2014,08,28,05,39,17.20
2014,08,28,05,40,17.20
2014,08,28,05,41,17.20
2014,08,28,05,42,17.20
2014,08,28,05,43,17.20
2014,08,28,05,44,17.20
2014,08,28,05,45,17.20
2014,08,28,05,46,17.20
2014,08,28,05,47,17.20
2014,08,28,05,48,17.20
2014,08,28,05,49,17.20
2014,08,28,05,50,17.20
2014,08,28,05,51,17.20
2014,08,28,05,52,17.20
2014,08,28,05,53,17.10
2014,08,28,05,54,17.10
2014,08,28,05,55,17.10
2014,08,28,05,56,17.10
2014,08,28,05,57,17.10
2014,08,28,05,58,17.10
2014,08,28,05,59,17.10
2014,08,28,06,00,17.10
2014,08,28,06,01,17.10
2014,08,28,06,02,17.10
2014,08,28,06,03,17.10
2014,08,28,06,04,17.10
2014,08,28,06,05,17.10
2014,08,28,06,06,17.10
2014,08,28,06,07,17.10
2014,08,28,06,08,17.10
2014,08,28,06,09,17.10
2014,08,28,06,10,17.10
2014,08,28,06,11,17.10
2014,08,28,06,12,17.10
2014,08,28,06,13,17.10
2014,08,28,06,14,17.10
2014,08,28,06,15,17.10
2014,08,28,06,16,17.10
2014,08,28,06,17,17.10
2014,08,28,06,18,17.10
2014,08,28,06,19,17.10
2014,08,28,06,20,17.10
2014,08,28,06,21,17.10
2014,08,28,06,22,17.10
2014,08,28,06,23,17.10
2014,08,28,06,24,17.10
2014,08,28,06,25,17.10
2014,08,28,06,26,17.10
2014,08,28,06,27,17.10
2014,08,28,06,28,17.10
2014,08,28,06,29,17.10
2014,08,28,06,30,17.20
2014,08,28,06,31,17.20
2014,08,28,06,32,17.20
2014,08,28,06,33,17.20
2014,08,28,06,34,17.20
2014,08,28,06,35,17.20
2014,08,28,06,36,17.20
2014,08,28,06,37,17.20
2014,08,28,06,38,17.20
2014,08,28,06,39,17.20
2014,08,28,06,40,17.20
2014,08,28,06,41,17.20
2014,08,28,06,42,17.30
2014,08,28,06,43,17.30
2014,08,28,06,44,17.30
2014,08,28,06,45,17.30
2014,08,28,06,46,17.30
2014,08,28,06,47,17.30
2014,08,28,06,48,17.30
2014,08,28,06,49,17.30
2014,08,28,06,50,17.30
2014,08,28,06,51,17.30
2014,08,28,06,52,17.30
2014,08,28,06,53,17.30
2014,08,28,06,54,17.30
2014,08,28,06,55,17.30
2014,08,28,06,56,17.30
2014,08,28,06,57,17.30
2014,08,28,06,58,17.30
2014,08,28,06,59,17.40
2014,08,28,07,00,17.40
2014,08,28,07,01,17.40
2014,08,28,07,02,17.40
2014,08,28,07,03,17.40
2014,08,28,07,04,17.40
2014,08,28,07,05,17.40
2014,08,28,07,06,17.40
2014,08,28,07,07,17.50
2014,08,28,07,08,17.50
2014,08,28,07,09,17.50
2014,08,28,07,10,17.50
2014,08,28,07,11,17.60
2014,08,28,07,12,17.60
2014,08,28,07,13,17.60
2014,08,28,07,14,17.60
2014,08,28,07,15,17.60
2014,08,28,07,16,17.60
2014,08,28,07,17,17.60
2014,08,28,07,18,17.70
2014,08,28,07,19,17.70
2014,08,28,07,20,17.70
2014,08,28,07,21,17.70
2014,08,28,07,22,17.70
2014,08,28,07,23,17.70
2014,08,28,07,24,17.70
2014,08,28,07,25,17.70
2014,08,28,07,26,17.70
2014,08,28,07,27,17.70
2014,08,28,07,28,17.80
2014,08,28,07,29,17.80
2014,08,28,07,30,17.80
2014,08,28,07,31,17.80
2014,08,28,07,32,17.80
2014,08,28,07,33,17.80
2014,08,28,07,34,17.80
2014,08,28,07,35,17.80
2014,08,28,07,36,17.80
2014,08,28,07,37,17.80
2014,08,28,07,38,17.80
2014,08,28,07,39,17.80
2014,08,28,07,40,17.80
2014,08,28,07,41,17.80
2014,08,28,07,42,17.80
2014,08,28,07,43,17.80
2014,08,28,07,44,17.80
2014,08,28,07,45,17.80
2014,08,28,07,46,17.80
2014,08,28,07,47,17.80
2014,08,28,07,48,17.80
2014,08,28,07,49,17.80
2014,08,28,07,50,17.80
2014,08,28,07,51,17.80
2014,08,28,07,52,17.80
2014,08,28,07,53,17.80
2014,08,28,07,54,17.80
2014,08,28,07,55,17.80
2014,08,28,07,56,17.80
2014,08,28,07,57,17.80
2014,08,28,07,58,17.80
2014,08,28,07,59,17.80
2014,08,28,08,00,17.80
2014,08,28,08,01,17.80
2014,08,28,08,02,17.80
2014,08,28,08,03,17.80
2014,08,28,08,04,17.80
2014,08,28,08,05,17.80
2014,08,28,08,06,17.80
2014,08,28,08,07,17.80
2014,08,28,08,08,17.80
2014,08,28,08,09,17.80
2014,08,28,08,10,17.80
2014,08,28,08,11,17.80
2014,08,28,08,12,17.80
2014,08,28,08,13,17.80
2014,08,28,08,14,17.90
2014,08,28,08,15,17.90
2014,08,28,08,16,17.90
2014,08,28,08,17,17.90
2014,08,28,08,18,17.90
2014,08,28,08,19,17.90
2014,08,28,08,20,17.90
2014,08,28,08,21,17.90
2014,08,28,08,22,17.90
2014,08,28,08,23,17.90
2014,08,28,08,24,17.90
2014,08,28,08,25,17.90
2014,08,28,08,26,17.90
2014,08,28,08,27,17.90
2014,08,28,08,28,17.90
2014,08,28,08,29,17.90
2014,08,28,08,30,17.90
2014,08,28,08,31,17.90
2014,08,28,08,32,17.90
2014,08,28,08,33,18.00
2014,08,28,08,34,18.00
2014,08,28,08,35,18.00
2014,08,28,08,36,18.00
2014,08,28,08,37,18.00
2014,08,28,08,38,18.00
2014,08,28,08,39,18.10
2014,08,28,08,40,18.10
2014,08,28,08,41,18.10
2014,08,28,08,42,18.10
2014,08,28,08,43,18.10
2014,08,28,08,44,18.10
2014,08,28,08,45,18.10
2014,08,28,08,46,18.10
2014,08,28,08,47,18.10
2014,08,28,08,48,18.10
2014,08,28,08,49,18.10
2014,08,28,08,50,18.10
2014,08,28,08,51,18.10
2014,08,28,08,52,18.10
2014,08,28,08,53,18.10
2014,08,28,08,54,18.10
2014,08,28,08,55,18.10
2014,08,28,08,56,18.20
2014,08,28,08,57,18.20
2014,08,28,08,58,18.20
2014,08,28,08,59,18.20
2014,08,28,09,00,18.20
2014,08,28,09,01,18.20
2014,08,28,09,02,18.20
2014,08,28,09,03,18.30
2014,08,28,09,04,18.30
2014,08,28,09,05,18.30
2014,08,28,09,06,18.30
2014,08,28,09,07,18.30
2014,08,28,09,08,18.30
2014,08,28,09,09,18.30
2014,08,28,09,10,18.40
2014,08,28,09,11,18.40
2014,08,28,09,12,18.40
2014,08,28,09,13,18.40
2014,08,28,09,14,18.40
2014,08,28,09,15,18.40
2014,08,28,09,16,18.50
2014,08,28,09,17,18.50
2014,08,28,09,18,18.50
2014,08,28,09,19,18.50
2014,08,28,09,20,18.50
2014,08,28,09,21,18.50
2014,08,28,09,22,18.50
2014,08,28,09,23,18.50
2014,08,28,09,24,18.50
2014,08,28,09,25,18.50
2014,08,28,09,26,18.50
2014,08,28,09,27,18.50
2014,08,28,09,28,18.50
2014,08,28,09,29,18.50
2014,08,28,09,30,18.50
2014,08,28,09,31,18.50
2014,08,28,09,32,18.50
2014,08,28,09,33,18.60
2014,08,28,09,34,18.60
2014,08,28,09,35,18.60
2014,08,28,09,36,18.60
2014,08,28,09,37,18.60
2014,08,28,09,38,18.60
2014,08,28,09,39,18.70
2014,08,28,09,40,18.70
2014,08,28,09,41,18.70
2014,08,28,09,42,18.70
2014,08,28,09,43,18.70
2014,08,28,09,44,18.70
2014,08,28,09,45,18.70
2014,08,28,09,46,18.80
2014,08,28,09,47,18.80
2014,08,28,09,48,18.80
2014,08,28,09,49,18.80
2014,08,28,09,50,18.80
2014,08,28,09,51,18.80
2014,08,28,09,52,18.90
2014,08,28,09,53,18.90
2014,08,28,09,54,18.90
2014,08,28,09,55,18.90
2014,08,28,09,56,18.90
2014,08,28,09,57,19.00
2014,08,28,09,58,19.00
2014,08,28,09,59,19.10
2014,08,28,10,00,19.10
2014,08,28,10,01,19.10
2014,08,28,10,02,19.10
2014,08,28,10,03,19.10
2014,08,28,10,04,19.10
2014,08,28,10,05,19.20
2014,08,28,10,06,19.20
2014,08,28,10,07,19.20
2014,08,28,10,08,19.20
2014,08,28,10,09,19.20
2014,08,28,10,10,19.20
2014,08,28,10,11,19.20
2014,08,28,10,12,19.20
2014,08,28,10,13,19.20
2014,08,28,10,14,19.30
2014,08,28,10,15,19.30
2014,08,28,10,16,19.30
2014,08,28,10,17,19.40
2014,08,28,10,18,19.40
2014,08,28,10,19,19.40
2014,08,28,10,20,19.50
2014,08,28,10,21,19.50
2014,08,28,10,22,19.60
2014,08,28,10,23,19.60
2014,08,28,10,24,19.60
2014,08,28,10,25,19.70
2014,08,28,10,26,19.70
2014,08,28,10,27,19.70
2014,08,28,10,28,19.70
2014,08,28,10,29,19.80
2014,08,28,10,30,19.80
2014,08,28,10,31,19.80
2014,08,28,10,32,19.80
2014,08,28,10,33,19.80
2014,08,28,10,34,19.80
2014,08,28,10,35,19.90
2014,08,28,10,36,19.90
2014,08,28,10,37,19.90
2014,08,28,10,38,19.90
2014,08,28,10,39,19.90
2014,08,28,10,40,19.90
2014,08,28,10,41,19.90
2014,08,28,10,42,19.90
2014,08,28,10,43,19.90
2014,08,28,10,44,19.90
2014,08,28,10,45,19.90
2014,08,28,10,46,20.00
2014,08,28,10,47,20.00
2014,08,28,10,48,20.00
2014,08,28,10,49,20.00
2014,08,28,10,50,20.00
2014,08,28,10,51,20.00
2014,08,28,10,52,20.00
2014,08,28,10,53,20.10
2014,08,28,10,54,20.10
2014,08,28,10,55,20.20
2014,08,28,10,56,20.30
2014,08,28,10,57,20.30
2014,08,28,10,58,20.50
2014,08,28,10,59,20.60
2014,08,28,11,00,20.70
2014,08,28,11,01,20.70
2014,08,28,11,02,20.80
2014,08,28,11,03,20.80
2014,08,28,11,04,20.90
2014,08,28,11,05,20.90
2014,08,28,11,06,20.90
2014,08,28,11,07,20.90
2014,08,28,11,08,20.90
2014,08,28,11,09,20.90
2014,08,28,11,10,20.90
2014,08,28,11,11,21.00
2014,08,28,11,12,21.00
2014,08,28,11,13,21.00
2014,08,28,11,14,21.10
2014,08,28,11,15,21.10
2014,08,28,11,16,21.20
2014,08,28,11,17,21.20
2014,08,28,11,18,21.20
2014,08,28,11,19,21.30
2014,08,28,11,20,21.30
2014,08,28,11,21,21.40
2014,08,28,11,22,21.40
2014,08,28,11,23,21.50
2014,08,28,11,24,21.60
2014,08,28,11,25,21.60
2014,08,28,11,26,21.70
2014,08,28,11,27,21.80
2014,08,28,11,28,21.80
2014,08,28,11,29,21.80
2014,08,28,11,30,21.80
2014,08,28,11,31,21.80
2014,08,28,11,32,21.70
2014,08,28,11,33,21.70
2014,08,28,11,34,21.80
2014,08,28,11,35,21.80
2014,08,28,11,36,21.90
2014,08,28,11,37,21.90
2014,08,28,11,38,22.00
2014,08,28,11,39,22.00
2014,08,28,11,40,22.00
2014,08,28,11,41,22.00
2014,08,28,11,42,22.10
2014,08,28,11,43,22.10
2014,08,28,11,44,22.10
2014,08,28,11,45,22.10
2014,08,28,11,46,22.10
2014,08,28,11,47,22.10
2014,08,28,11,48,22.10
2014,08,28,11,49,22.10
2014,08,28,11,50,22.10
2014,08,28,11,51,22.20
2014,08,28,11,52,22.20
2014,08,28,11,53,22.30
2014,08,28,11,54,22.30
2014,08,28,11,55,22.40
2014,08,28,11,56,22.50
2014,08,28,11,57,22.50
2014,08,28,11,58,22.60
2014,08,28,11,59,22.60
2014,08,28,12,00,22.60
2014,08,28,12,01,22.70
2014,08,28,12,02,22.70
2014,08,28,12,03,22.80
2014,08,28,12,04,22.80
2014,08,28,12,05,22.80
2014,08,28,12,06,22.90
2014,08,28,12,07,22.90
2014,08,28,12,08,22.90
2014,08,28,12,09,22.90
2014,08,28,12,10,22.90
2014,08,28,12,11,22.90
2014,08,28,12,12,22.90
2014,08,28,12,13,23.00
2014,08,28,12,14,23.00
2014,08,28,12,15,23.10
2014,08,28,12,16,23.20
2014,08,28,12,17,23.30
2014,08,28,12,18,23.30
2014,08,28,12,19,23.40
2014,08,28,12,20,23.40
2014,08,28,12,21,23.40
2014,08,28,12,22,23.50
2014,08,28,12,23,23.50
2014,08,28,12,24,23.50
2014,08,28,12,25,23.50
2014,08,28,12,26,23.50
2014,08,28,12,27,23.50
2014,08,28,12,28,23.50
2014,08,28,12,29,23.60
2014,08,28,12,30,23.60
2014,08,28,12,31,23.60
2014,08,28,12,32,23.60
2014,08,28,12,33,23.60
2014,08,28,12,34,23.60
2014,08,28,12,35,23.50
2014,08,28,12,36,23.60
2014,08,28,12,37,23.60
2014,08,28,12,38,23.70
2014,08,28,12,39,23.70
2014,08,28,12,40,23.70
2014,08,28,12,41,23.80
2014,08,28,12,42,23.70
2014,08,28,12,43,23.70
2014,08,28,12,44,23.70
2014,08,28,12,45,23.70
2014,08,28,12,46,23.70
2014,08,28,12,47,23.60
2014,08,28,12,48,23.70
2014,08,28,12,49,23.70
2014,08,28,12,50,23.60
2014,08,28,12,51,23.60
2014,08,28,12,52,23.50
2014,08,28,12,53,23.30
2014,08,28,12,54,23.30
2014,08,28,12,55,23.20
2014,08,28,12,56,23.10
2014,08,28,12,57,23.10
2014,08,28,12,58,23.00
2014,08,28,12,59,22.90
2014,08,28,13,00,22.80
2014,08,28,13,01,22.80
2014,08,28,13,02,22.80
2014,08,28,13,03,22.70
2014,08,28,13,04,22.60
2014,08,28,13,05,22.50
2014,08,28,13,06,22.50
2014,08,28,13,07,22.40
2014,08,28,13,08,22.40
2014,08,28,13,09,22.30
2014,08,28,13,10,22.30
2014,08,28,13,11,22.30
2014,08,28,13,12,22.30
2014,08,28,13,13,22.30
2014,08,28,13,14,22.40
2014,08,28,13,15,22.50
2014,08,28,13,16,22.60
2014,08,28,13,17,22.70
2014,08,28,13,18,22.80
2014,08,28,13,19,23.00
2014,08,28,13,20,23.20
2014,08,28,13,21,23.40
2014,08,28,13,22,23.50
2014,08,28,13,23,23.60
2014,08,28,13,24,23.70
2014,08,28,13,25,23.80
2014,08,28,13,26,23.90
2014,08,28,13,27,24.00
2014,08,28,13,28,24.10
2014,08,28,13,29,24.20
2014,08,28,13,30,24.30
2014,08,28,13,31,24.30
2014,08,28,13,32,24.40
2014,08,28,13,33,24.40
2014,08,28,13,34,24.50
2014,08,28,13,35,24.50
2014,08,28,13,36,24.60
2014,08,28,13,37,24.60
2014,08,28,13,38,24.70
2014,08,28,13,39,24.80
2014,08,28,13,40,24.80
2014,08,28,13,41,24.80
2014,08,28,13,42,24.80
2014,08,28,13,43,24.90
2014,08,28,13,44,24.90
2014,08,28,13,45,24.90
2014,08,28,13,46,24.90
2014,08,28,13,47,24.90
2014,08,28,13,48,24.90
2014,08,28,13,49,24.80
2014,08,28,13,50,24.90
2014,08,28,13,51,24.90
2014,08,28,13,52,25.00
2014,08,28,13,53,25.00
2014,08,28,13,54,25.10
2014,08,28,13,55,25.10
2014,08,28,13,56,25.20
2014,08,28,13,57,25.20
2014,08,28,13,58,25.10
2014,08,28,13,59,25.10
2014,08,28,14,00,25.10
2014,08,28,14,01,25.10
2014,08,28,14,02,25.20
2014,08,28,14,03,25.20
2014,08,28,14,04,25.20
2014,08,28,14,05,25.20
2014,08,28,14,06,25.20
2014,08,28,14,07,25.30
2014,08,28,14,08,25.30
2014,08,28,14,09,25.30
2014,08,28,14,10,25.40
2014,08,28,14,11,25.50
2014,08,28,14,12,25.50
2014,08,28,14,13,25.60
2014,08,28,14,14,25.60
2014,08,28,14,15,25.60
2014,08,28,14,16,25.70
2014,08,28,14,17,25.60
2014,08,28,14,18,25.60
2014,08,28,14,19,25.60
2014,08,28,14,20,25.60
2014,08,28,14,21,25.60
2014,08,28,14,22,25.60
2014,08,28,14,23,25.70
2014,08,28,14,24,25.70
2014,08,28,14,25,25.70
2014,08,28,14,26,25.70
2014,08,28,14,27,25.70
2014,08,28,14,28,25.80
2014,08,28,14,29,25.90
2014,08,28,14,30,26.00
2014,08,28,14,31,26.10
2014,08,28,14,32,26.10
2014,08,28,14,33,26.00
2014,08,28,14,34,25.90
2014,08,28,14,35,25.90
2014,08,28,14,36,25.90
2014,08,28,14,37,25.90
2014,08,28,14,38,25.90
2014,08,28,14,39,25.90
2014,08,28,14,40,25.90
2014,08,28,14,41,26.00
2014,08,28,14,42,26.10
2014,08,28,14,43,26.20
2014,08,28,14,44,26.10
2014,08,28,14,45,26.20
2014,08,28,14,46,26.20
2014,08,28,14,47,26.10
2014,08,28,14,48,26.00
2014,08,28,14,49,25.90
2014,08,28,14,50,25.90
2014,08,28,14,51,25.90
2014,08,28,14,52,25.80
2014,08,28,14,53,25.80
2014,08,28,14,54,25.80
2014,08,28,14,55,25.70
2014,08,28,14,56,25.70
2014,08,28,14,57,25.70
2014,08,28,14,58,25.60
2014,08,28,14,59,25.60
2014,08,28,15,00,25.70
2014,08,28,15,01,25.70
2014,08,28,15,02,25.70
2014,08,28,15,03,25.70
2014,08,28,15,04,25.80
2014,08,28,15,05,25.80
2014,08,28,15,06,25.80
2014,08,28,15,07,25.80
2014,08,28,15,08,25.70
2014,08,28,15,09,25.70
2014,08,28,15,10,25.80
2014,08,28,15,11,25.80
2014,08,28,15,12,25.80
2014,08,28,15,13,25.80
2014,08,28,15,14,25.70
2014,08,28,15,15,25.70
2014,08,28,15,16,25.70
2014,08,28,15,17,25.70
2014,08,28,15,18,25.70
2014,08,28,15,19,25.70
2014,08,28,15,20,25.70
2014,08,28,15,21,25.70
2014,08,28,15,22,25.80
2014,08,28,15,23,25.80
2014,08,28,15,24,25.80
2014,08,28,15,25,25.80
2014,08,28,15,26,25.80
2014,08,28,15,27,25.70
2014,08,28,15,28,25.70
2014,08,28,15,29,25.60
2014,08,28,15,30,25.60
2014,08,28,15,31,25.70
2014,08,28,15,32,25.60
2014,08,28,15,33,25.60
2014,08,28,15,34,25.60
2014,08,28,15,35,25.60
2014,08,28,15,36,25.60
2014,08,28,15,37,25.70
2014,08,28,15,38,25.70
2014,08,28,15,39,25.70
2014,08,28,15,40,25.70
2014,08,28,15,41,25.70
2014,08,28,15,42,25.70
2014,08,28,15,43,25.80
2014,08,28,15,44,25.80
2014,08,28,15,45,25.80
2014,08,28,15,46,25.80
2014,08,28,15,47,25.90
2014,08,28,15,48,25.90
2014,08,28,15,49,25.90
2014,08,28,15,50,26.00
2014,08,28,15,51,26.00
2014,08,28,15,52,26.00
2014,08,28,15,53,26.00
2014,08,28,15,54,26.00
2014,08,28,15,55,25.90
2014,08,28,15,56,25.90
2014,08,28,15,57,25.90
2014,08,28,15,58,25.90
2014,08,28,15,59,25.90
2014,08,28,16,00,26.00
2014,08,28,16,01,26.00
2014,08,28,16,02,26.10
2014,08,28,16,03,26.10
2014,08,28,16,04,26.20
2014,08,28,16,05,26.20
2014,08,28,16,06,26.20
2014,08,28,16,07,26.30
2014,08,28,16,08,26.30
2014,08,28,16,09,26.40
2014,08,28,16,10,26.50
2014,08,28,16,11,26.50
2014,08,28,16,12,26.50
2014,08,28,16,13,26.50
2014,08,28,16,14,26.50
2014,08,28,16,15,26.40
2014,08,28,16,16,26.50
2014,08,28,16,17,26.50
2014,08,28,16,18,26.60
2014,08,28,16,19,26.60
2014,08,28,16,20,26.70
2014,08,28,16,21,26.70
2014,08,28,16,22,26.70
2014,08,28,16,23,26.70
2014,08,28,16,24,26.70
2014,08,28,16,25,26.60
2014,08,28,16,26,26.60
2014,08,28,16,27,26.60
2014,08,28,16,28,26.60
2014,08,28,16,29,26.60
2014,08,28,16,30,26.50
2014,08,28,16,31,26.50
2014,08,28,16,32,26.30
2014,08,28,16,33,26.30
2014,08,28,16,34,26.20
2014,08,28,16,35,26.20
2014,08,28,16,36,26.10
2014,08,28,16,37,26.10
2014,08,28,16,38,26.00
2014,08,28,16,39,26.00
2014,08,28,16,40,26.00
2014,08,28,16,41,25.90
2014,08,28,16,42,25.90
2014,08,28,16,43,25.80
2014,08,28,16,44,25.70
2014,08,28,16,45,25.60
2014,08,28,16,46,25.50
2014,08,28,16,47,25.50
2014,08,28,16,48,25.60
2014,08,28,16,49,25.60
2014,08,28,16,50,25.70
2014,08,28,16,51,25.70
2014,08,28,16,52,25.80
2014,08,28,16,53,25.80
2014,08,28,16,54,25.90
2014,08,28,16,55,25.80
2014,08,28,16,56,25.80
2014,08,28,16,57,25.90
2014,08,28,16,58,25.90
2014,08,28,16,59,25.90
2014,08,28,17,00,25.90
2014,08,28,17,01,25.90
2014,08,28,17,02,25.90
2014,08,28,17,03,25.90
2014,08,28,17,04,25.90
2014,08,28,17,05,25.90
2014,08,28,17,06,25.90
2014,08,28,17,07,25.90
2014,08,28,17,08,25.90
2014,08,28,17,09,25.90
2014,08,28,17,10,25.80
2014,08,28,17,11,25.70
2014,08,28,17,12,25.60
2014,08,28,17,13,25.60
2014,08,28,17,14,25.60
2014,08,28,17,15,25.60
2014,08,28,17,16,25.60
2014,08,28,17,17,25.60
2014,08,28,17,18,25.60
2014,08,28,17,19,25.60